TimeEDT,TemperatureF,Dew PointF,Humidity,Sea Level PressureIn,VisibilityMPH,Wind Direction,Wind SpeedMPH,Gust SpeedMPH,PrecipitationIn,Events,Conditions,WindDirDegrees,DateUTC
12:54 AM,44.1,39.9,85,30.02,10.0,Calm,Calm,-,N/A,,Clear,0,2013-10-19 04:54:00
1:54 AM,45.0,42.1,90,30.02,10.0,Calm,Calm,-,N/A,,Clear,0,2013-10-19 05:54:00
2:54 AM,42.1,39.9,92,30.02,10.0,NNW,3.5,-,N/A,,Clear,340,2013-10-19 06:54:00
3:54 AM,41.0,39.0,93,30.01,10.0,Calm,Calm,-,N/A,,Clear,0,2013-10-19 07:54:00
4:54 AM,42.1,39.9,92,30.01,10.0,Calm,Calm,-,N/A,,Clear,0,2013-10-19 08:54:00
5:54 AM,43.0,39.9,89,29.99,10.0,Calm,Calm,-,N/A,,Clear,0,2013-10-19 09:54:00
6:54 AM,42.1,39.9,92,29.99,10.0,Calm,Calm,-,N/A,,Clear,0,2013-10-19 10:54:00
7:54 AM,45.0,42.1,90,29.99,10.0,Calm,Calm,-,N/A,,Clear,0,2013-10-19 11:54:00
8:54 AM,52.0,50.0,93,30.00,8.0,Calm,Calm,-,N/A,,Clear,0,2013-10-19 12:54:00
9:54 AM,59.0,53.1,81,29.99,10.0,Calm,Calm,-,N/A,,Clear,0,2013-10-19 13:54:00
10:54 AM,62.1,48.9,62,29.99,10.0,Variable,3.5,-,N/A,,Clear,0,2013-10-19 14:54:00
11:54 AM,62.1,45.0,53,29.95,10.0,SE,9.2,-,N/A,,Clear,140,2013-10-19 15:54:00
12:54 PM,63.0,45.0,52,29.94,10.0,SSE,8.1,-,N/A,,Clear,150,2013-10-19 16:54:00
1:54 PM,62.1,46.0,56,29.91,10.0,South,5.8,-,N/A,,Scattered Clouds,170,2013-10-19 17:54:00
2:54 PM,62.1,48.0,60,29.88,10.0,SSE,6.9,-,N/A,,Overcast,160,2013-10-19 18:54:00
3:33 PM,61.0,48.9,64,29.87,10.0,SSE,8.1,-,N/A,,Mostly Cloudy,160,2013-10-19 19:33:00
3:54 PM,61.0,50.0,67,29.86,10.0,Variable,3.5,-,N/A,,Scattered Clouds,0,2013-10-19 19:54:00
4:14 PM,61.0,50.0,67,29.84,10.0,SSE,6.9,-,N/A,,Mostly Cloudy,160,2013-10-19 20:14:00
4:54 PM,60.1,51.1,72,29.85,10.0,South,4.6,-,N/A,,Mostly Cloudy,190,2013-10-19 20:54:00
5:16 PM,60.1,52.0,75,29.85,10.0,South,4.6,-,0.00,Rain,Light Rain,180,2013-10-19 21:16:00
5:54 PM,57.9,53.1,84,29.85,10.0,Calm,Calm,-,0.00,,Overcast,0,2013-10-19 21:54:00
6:54 PM,57.9,54.0,87,29.83,10.0,Calm,Calm,-,0.00,Rain,Light Rain,0,2013-10-19 22:54:00
7:54 PM,57.9,57.0,97,29.83,10.0,South,3.5,-,0.02,Rain,Light Rain,190,2013-10-19 23:54:00
8:54 PM,59.0,57.9,96,29.80,10.0,South,6.9,-,0.01,,Overcast,180,2013-10-20 00:54:00
9:54 PM,59.0,57.9,96,29.81,10.0,SSW,6.9,-,N/A,,Partly Cloudy,210,2013-10-20 01:54:00
10:54 PM,60.1,59.0,96,29.81,10.0,SW,8.1,-,N/A,,Scattered Clouds,230,2013-10-20 02:54:00
11:54 PM,60.1,59.0,96,29.81,10.0,WSW,11.5,-,N/A,,Mostly Cloudy,250,2013-10-20 03:54:00